TimeEST,TemperatureF,Dew PointF,Humidity,Sea Level PressureIn,VisibilityMPH,Wind Direction,Wind SpeedMPH,Gust SpeedMPH,PrecipitationIn,Events,Conditions,WindDirDegrees,DateUTC
12:54 AM,37.9,21.9,53,29.95,10.0,South,12.7,-,N/A,,Overcast,180,2013-02-11 05:54:00
1:54 AM,39.0,23.0,53,29.90,10.0,SSE,10.4,-,0.00,,Mostly Cloudy,160,2013-02-11 06:54:00
2:54 AM,39.0,23.0,53,29.88,10.0,South,10.4,-,N/A,,Overcast,170,2013-02-11 07:54:00
3:54 AM,37.4,24.8,60,29.83,10.0,South,11.5,17.3,N/A,Rain,Light Rain,180,2013-02-11 08:54:00
4:54 AM,37.0,26.1,65,29.82,10.0,SSE,10.4,-,0.03,Rain,Light Rain,150,2013-02-11 09:54:00
5:54 AM,37.9,26.1,62,29.80,10.0,South,6.9,-,0.00,,Overcast,180,2013-02-11 10:54:00
6:17 AM,39.2,26.6,61,29.78,10.0,South,11.5,-,0.00,Rain,Light Rain,190,2013-02-11 11:17:00
6:54 AM,37.0,30.0,76,29.78,9.0,South,8.1,-,0.01,Rain-Snow,Light Rain,180,2013-02-11 11:54:00
7:54 AM,37.9,30.9,76,29.76,10.0,South,9.2,-,0.01,,Overcast,190,2013-02-11 12:54:00
8:23 AM,39.2,30.2,70,29.74,10.0,SSW,10.4,-,N/A,,Overcast,200,2013-02-11 13:23:00
8:54 AM,39.2,32.0,75,29.72,10.0,SSW,8.1,-,N/A,,Overcast,200,2013-02-11 13:54:00
9:16 AM,41.0,33.8,76,29.71,10.0,SW,11.5,-,N/A,,Overcast,220,2013-02-11 14:16:00
9:54 AM,43.0,35.1,74,29.70,10.0,SSW,10.4,19.6,N/A,,Scattered Clouds,210,2013-02-11 14:54:00
10:54 AM,46.0,37.0,71,29.68,10.0,SSW,12.7,-,N/A,,Scattered Clouds,210,2013-02-11 15:54:00
11:54 AM,48.0,37.9,68,29.63,10.0,SSW,13.8,26.5,N/A,,Partly Cloudy,200,2013-02-11 16:54:00
12:54 PM,48.9,39.0,69,29.58,10.0,SSW,17.3,23.0,N/A,,Scattered Clouds,200,2013-02-11 17:54:00
1:52 PM,44.6,37.4,76,29.59,6.0,West,29.9,48.3,0.00,Rain,Light Rain,260,2013-02-11 18:52:00
1:53 PM,43.0,37.0,80,29.61,6.0,West,28.8,48.3,0.00,Rain,Light Rain,260,2013-02-11 18:53:00
2:54 PM,42.1,30.0,62,29.63,10.0,West,26.5,39.1,0.00,,Overcast,260,2013-02-11 19:54:00
3:54 PM,39.0,28.9,67,29.66,10.0,West,25.3,42.6,N/A,,Overcast,260,2013-02-11 20:54:00
4:54 PM,37.9,27.0,65,29.68,10.0,West,26.5,38.0,N/A,,Overcast,260,2013-02-11 21:54:00
5:54 PM,37.9,26.1,62,29.69,10.0,West,25.3,47.2,N/A,,Mostly Cloudy,260,2013-02-11 22:54:00
6:54 PM,37.0,25.0,62,29.71,9.0,WSW,38.0,49.5,0.00,Snow,Light Snow,250,2013-02-11 23:54:00
7:54 PM,36.0,25.0,64,29.72,10.0,WSW,23.0,34.5,0.00,,Mostly Cloudy,250,2013-02-12 00:54:00
8:54 PM,37.0,26.1,65,29.73,9.0,WSW,27.6,44.9,0.00,Snow,Light Snow,250,2013-02-12 01:54:00
8:59 PM,37.4,26.6,65,29.71,9.0,West,27.6,44.9,0.00,Snow,Light Snow,270,2013-02-12 01:59:00
9:54 PM,36.0,27.0,70,29.71,5.0,West,29.9,41.4,0.00,Snow,Light Snow,260,2013-02-12 02:54:00
10:54 PM,35.1,28.0,76,29.70,3.0,WSW,26.5,36.8,0.00,Snow,Light Snow,250,2013-02-12 03:54:00
11:06 PM,35.6,28.4,75,29.68,2.5,WSW,23.0,36.8,0.00,Snow,Light Snow,250,2013-02-12 04:06:00
11:54 PM,34.0,28.9,82,29.70,2.5,WSW,25.3,36.8,0.00,Snow,Light Snow,250,2013-02-12 04:54:00